Date String (YYYY-MM-DD hh:mm:ss) UTC,Instrument flags,Ambient pressure (hPa),Sample flow (lpm),Bypass flow (lpm),Sample temperature (°C),Ambient temperature (°C),ASC tube jacket temperature (°C),LED temperature (°C),Box temperature (°C),Sample RH (%),Span deviation,Mass concentration (μg/m³),Mass concentration (μg/m³),Mass concentration (μg/m³)
DateTimeUTC,F1_M11,P_M11,Q1_M11,Q2_M11,T1_M11,T2_M11,T3_M11,T4_M11,T5_M11,U1_M11,ZSPAN_M11,X0_M11,X2_M11,X1_M11
2021-12-13 21:00:00,,0822.8,5.00,0.00,29.1,28.5,00.0,38.0,30.9,05.5,0000.0,0015.66,0004.34,0003.39
2021-12-13 21:01:00,,0822.8,5.00,0.00,29.2,28.5,00.0,38.0,31.0,05.5,0000.0,0015.71,0004.35,0003.40
2021-12-13 21:02:00,,0822.7,5.00,0.00,29.2,28.5,00.0,38.1,31.0,05.5,0000.0,0016.60,0004.40,0003.43
2021-12-13 21:03:00,,0822.7,5.00,0.00,29.2,28.5,00.0,38.1,31.0,05.5,0000.0,0017.35,0004.47,0003.45
2021-12-13 21:04:00,,0822.6,5.01,0.00,29.2,28.5,00.0,38.1,31.0,05.5,0000.0,0017.77,0004.52,0003.48
2021-12-13 21:05:00,,0822.7,5.00,0.00,29.2,28.6,00.0,38.1,31.0,05.5,0000.0,0017.98,0004.53,0003.50
2021-12-13 21:06:00,,0822.7,5.00,0.00,29.2,28.6,00.0,38.1,31.1,05.5,0000.0,0018.30,0004.50,0003.51
2021-12-13 21:07:00,,0822.7,5.00,0.00,29.3,28.6,00.0,38.1,31.0,05.5,0000.0,0017.89,0004.49,0003.52
2021-12-13 21:08:00,,0822.7,5.01,0.00,29.3,28.6,00.0,38.2,31.1,05.5,0000.0,0016.90,0004.51,0003.53
2021-12-13 21:09:00,,0822.8,4.99,0.00,29.3,28.6,00.0,38.2,31.1,05.5,0000.0,0016.91,0004.49,0003.54
2021-12-13 21:10:00,,0822.7,5.00,0.00,29.3,28.6,00.0,38.2,31.1,05.5,0000.0,0015.76,0004.47,0003.55
2021-12-13 21:11:00,,0822.7,4.99,0.00,29.3,28.6,00.0,38.2,31.1,05.5,0000.0,0014.78,0004.47,0003.57
2021-12-13 21:12:00,,0822.7,5.00,0.00,29.3,28.7,00.0,38.2,31.1,05.5,0000.0,0014.12,0004.41,0003.56
2021-12-13 21:13:00,,0822.7,4.99,0.00,29.4,28.7,00.0,38.2,31.2,05.5,0000.0,0012.83,0004.41,0003.58
2021-12-13 21:14:00,,0822.8,5.00,0.00,29.4,28.7,00.0,38.3,31.2,05.5,0000.0,0012.38,0004.38,0003.59
2021-12-13 21:15:00,,0822.9,5.01,0.00,29.4,28.7,00.0,38.3,31.2,05.5,0000.0,0013.26,0004.39,0003.60
2021-12-13 21:16:00,,0822.8,5.00,0.00,29.4,28.7,00.0,38.3,31.2,05.5,0000.0,0013.21,0004.41,0003.61
2021-12-13 21:17:00,,0822.7,5.00,0.00,29.4,28.8,00.0,38.3,31.2,05.5,0000.0,0013.16,0004.46,0003.63
2021-12-13 21:18:00,,0822.8,5.00,0.00,29.4,28.8,00.0,38.3,31.3,05.5,0000.0,0013.30,0004.45,0003.64
2021-12-13 21:19:00,,0822.8,5.01,0.00,29.5,28.8,00.0,38.3,31.3,05.4,0000.0,0013.38,0004.47,0003.66
2021-12-13 21:20:00,,0822.8,5.00,0.00,29.5,28.8,00.0,38.3,31.3,05.4,0000.0,0013.18,0004.42,0003.66
2021-12-13 21:21:00,,0822.8,4.99,0.00,29.5,28.8,00.0,38.4,31.3,05.4,0000.0,0013.50,0004.42,0003.66
2021-12-13 21:22:00,,0822.7,5.01,0.00,29.5,28.8,00.0,38.4,31.3,05.4,0000.0,0013.09,0004.41,0003.66
2021-12-13 21:23:00,,0822.8,5.00,0.00,29.5,28.8,00.0,38.4,31.3,05.4,0000.0,0013.30,0004.49,0003.67
2021-12-13 21:24:00,,0822.7,5.00,0.00,29.5,28.8,00.0,38.4,31.3,05.4,0000.0,0014.29,0004.48,0003.66
2021-12-13 21:25:00,,0822.7,5.00,0.00,29.5,28.8,00.0,38.4,31.3,05.4,0000.0,0015.64,0004.49,0003.65
2021-12-13 21:26:00,,0822.7,5.00,0.00,29.6,28.8,00.0,38.4,31.4,05.4,0000.0,0015.16,0004.48,0003.65
2021-12-13 21:27:00,,0822.8,5.01,0.00,29.6,28.9,00.0,38.5,31.3,05.4,0000.0,0014.56,0004.43,0003.64
2021-12-13 21:28:00,,0822.9,4.99,0.00,29.6,28.9,00.0,38.5,31.3,05.3,0000.0,0013.56,0004.40,0003.62
2021-12-13 21:29:00,,0823.0,5.00,0.00,29.6,28.9,00.0,38.5,31.4,05.3,0000.0,0013.46,0004.41,0003.60
2021-12-13 21:30:00,,0823.0,5.00,0.00,29.6,28.9,00.0,38.5,31.4,05.3,0000.0,0013.46,0004.43,0003.58
2021-12-13 21:31:00,,0822.9,5.01,0.00,29.6,28.9,00.0,38.5,31.4,05.3,0000.0,0013.48,0004.44,0003.58
2021-12-13 21:32:00,,0823.0,4.99,0.00,29.6,29.0,00.0,38.5,31.4,05.3,0000.0,0012.66,0004.42,0003.58
2021-12-13 21:33:00,,0823.0,5.00,0.00,29.7,29.0,00.0,38.5,31.4,05.3,0000.0,0012.36,0004.40,0003.57
2021-12-13 21:34:00,,0822.9,5.01,0.00,29.7,29.0,00.0,38.6,31.4,05.3,0000.0,0012.09,0004.32,0003.56
2021-12-13 21:35:00,,0822.9,5.00,0.00,29.7,29.0,00.0,38.6,31.5,05.3,0000.0,0011.43,0004.30,0003.54
2021-12-13 21:36:00,,0822.8,4.99,0.00,29.7,29.0,00.0,38.6,31.5,05.2,0000.0,0010.49,0004.29,0003.53
2021-12-13 21:37:00,,0822.8,4.99,0.00,29.7,29.0,00.0,38.6,31.5,05.2,0000.0,0009.40,0004.27,0003.51
2021-12-13 21:38:00,,0822.8,5.01,0.00,29.7,29.0,00.0,38.6,31.5,05.2,0000.0,0009.53,0004.26,0003.50
2021-12-13 21:39:00,,0822.8,4.99,0.00,29.8,29.0,00.0,38.6,31.5,05.2,0000.0,0010.17,0004.29,0003.51
2021-12-13 21:40:00,,0822.8,5.00,0.00,29.8,29.1,00.0,38.6,31.5,05.2,0000.0,0010.66,0004.26,0003.50
2021-12-13 21:41:00,,0822.8,5.01,0.00,29.8,29.1,00.0,38.7,31.6,05.1,0000.0,0011.53,0004.20,0003.50
2021-12-13 21:42:00,,0822.8,5.00,0.00,29.8,29.1,00.0,38.7,31.6,05.2,0000.0,0011.95,0004.20,0003.50
2021-12-13 21:43:00,,0822.8,4.99,0.00,29.8,29.1,00.0,38.7,31.6,05.2,0000.0,0012.04,0004.22,0003.50
2021-12-13 21:44:00,,0822.9,5.00,0.00,29.8,29.1,00.0,38.7,31.7,05.2,0000.0,0012.20,0004.26,0003.50
2021-12-13 21:45:00,,0822.9,4.99,0.00,29.8,29.1,00.0,38.7,31.6,05.1,0000.0,0012.61,0004.30,0003.50
2021-12-13 21:46:00,,0822.9,5.00,0.00,29.9,29.2,00.0,38.7,31.6,05.1,0000.0,0012.63,0004.33,0003.51
2021-12-13 21:47:00,,0822.9,5.00,0.00,29.9,29.2,00.0,38.8,31.6,05.1,0000.0,0012.10,0004.35,0003.52
2021-12-13 21:48:00,,0822.8,5.01,0.00,29.9,29.2,00.0,38.8,31.7,05.2,0000.0,0012.35,0004.39,0003.52
2021-12-13 21:49:00,,0822.9,5.00,0.00,29.9,29.3,00.0,38.8,31.7,05.2,0000.0,0012.16,0004.43,0003.52
2021-12-13 21:50:00,,0822.8,4.99,0.00,29.9,29.3,00.0,38.8,31.7,05.2,0000.0,0011.63,0004.43,0003.52
2021-12-13 21:51:00,,0822.8,5.01,0.00,29.9,29.3,00.0,38.8,31.7,05.2,0000.0,0011.33,0004.48,0003.53
2021-12-13 21:52:00,,0822.8,4.99,0.00,30.0,29.3,00.0,38.8,31.8,05.1,0000.0,0010.42,0004.51,0003.55
2021-12-13 21:53:00,,0822.7,5.00,0.00,30.0,29.3,00.0,38.8,31.7,05.2,0000.0,0009.97,0004.51,0003.55
2021-12-13 21:54:00,,0822.8,5.01,0.00,30.0,29.4,00.0,38.9,31.8,05.1,0000.0,0011.04,0004.54,0003.57
2021-12-13 21:55:00,,0822.8,4.99,0.00,30.0,29.4,00.0,38.9,31.8,05.1,0000.0,0012.78,0004.57,0003.57
2021-12-13 21:56:00,,0822.8,5.01,0.00,30.0,29.4,00.0,38.9,31.9,05.1,0000.0,0013.22,0004.56,0003.57
2021-12-13 21:57:00,,0822.8,4.99,0.00,30.1,29.4,00.0,38.9,31.9,05.1,0000.0,0013.47,0004.57,0003.58
2021-12-13 21:58:00,,0822.8,5.02,0.00,30.1,29.4,00.0,38.9,31.9,05.1,0001.4,0013.87,0004.60,0003.58
2021-12-13 21:59:00,,0822.8,5.00,0.00,30.1,29.5,00.0,39.0,31.9,05.1,0001.3,0013.63,0004.57,0003.59
